This is the latest recevied weather packets stored in our database for station/object OK1FRN-6. If no packets are shown the sender has not sent any weather packets the latest 10 day(s).
| Time | Temp. | Humidity | Pressure | Rain* | Wind** | Luminosity | Snow |
|---|---|---|---|---|---|---|---|
| 1777380877 | 21.67° C | 25% | 1021.1 hPa | - | - | - | - |
| 1777380570 | 21.67° C | 26% | 1021.2 hPa | - | - | - | - |
| 1777379956 | 21.11° C | 24% | 1021.1 hPa | - | - | - | - |
| 1777379650 | 21.11° C | 24% | 1021.2 hPa | - | - | - | - |
| 1777379343 | 21.67° C | 23% | 1021.3 hPa | - | - | - | - |
| 1777379036 | 22.22° C | 24% | 1021.2 hPa | - | - | - | - |
| 1777378729 | 22.22° C | 24% | 1021.2 hPa | - | - | - | - |
| 1777378422 | 22.22° C | 25% | 1021.3 hPa | - | - | - | - |
| 1777377810 | 22.22° C | 25% | 1021.3 hPa | - | - | - | - |
| 1777377502 | 22.22° C | 25% | 1021.3 hPa | - | - | - | - |
| 1777377195 | 22.22° C | 25% | 1021.4 hPa | - | - | - | - |
| 1777376888 | 22.22° C | 26% | 1021.4 hPa | - | - | - | - |
| 1777376582 | 22.22° C | 24% | 1021.4 hPa | - | - | - | - |
| 1777376275 | 22.22° C | 26% | 1021.4 hPa | - | - | - | - |
| 1777375968 | 22.22° C | 26% | 1021.6 hPa | - | - | - | - |
| 1777375048 | 21.67° C | 27% | 1021.6 hPa | - | - | - | - |
| 1777374741 | 21.11° C | 27% | 1021.7 hPa | - | - | - | - |
| 1777374435 | 21.11° C | 26% | 1021.6 hPa | - | - | - | - |
| 1777373514 | 21.67° C | 27% | 1021.8 hPa | - | - | - | - |
| 1777372900 | 20.56° C | 27% | 1021.8 hPa | - | - | - | - |
| 1777372593 | 21.11° C | 26% | 1022 hPa | - | - | - | - |
| 1777372287 | 21.11° C | 26% | 1022 hPa | - | - | - | - |
| 1777371980 | 21.11° C | 26% | 1021.9 hPa | - | - | - | - |
| 1777371674 | 21.11° C | 27% | 1022 hPa | - | - | - | - |
| 1777371367 | 21.11° C | 27% | 1022 hPa | - | - | - | - |
* Rain since midnight (hover to see other rain measurements)
** Current wind speed in m/s (hover to see current wind gust speed)